Location: Unspecified
(35.7250°N, 0.0000°E)
Time: 04:47:05
(UTC+00:00)

Vanguard 1 Rocket - Pass Details

Date: 17 June 2019
Orbit: 651 x 4225 km, 34.3° (Epoch: 22 July)

Event Time Altitude Azimuth Distance (km) Brightness Sun altitude
Rises 00:49:23 0° 272° (W) 3,189 - -29.8°
Reaches altitude 10° 00:52:39 10° 250° (WSW) 2,089 - -29.6°
Maximum altitude 00:55:29 16° 210° (SSW) 1,656 - -29.5°
Drops below altitude 10° 00:58:21 10° 170° (S) 2,098 - -29.4°
Sets 01:01:39 0° 148° (SSE) 3,213 - -29.2°
